Location: Tuscaloosa
(33.2100°N, 87.5400°W)
Time: 16:15:08
(UTC-05:00)

Daily predictions for brighter satellites

Satellite Brightness Start Highest point End
(mag) Time Altitude Azimuth Time Altitude Azimuth Time Altitude Azimuth
SMAP 3.1 18:19:26 10° SSE 18:24:04 82° ENE 18:28:44 10° N
Cosmos 1939 Rocket 4.0 18:22:00 10° ESE 18:25:04 22° ENE 18:28:06 10° NNE
Cosmos 1328 4.1 18:23:04 10° N 18:27:00 74° W 18:30:56 10° S
Cosmos 2228 3.2 18:23:20 10° S 18:27:33 77° W 18:31:49 10° N
Aureole 3 Rocket 3.4 18:24:20 10° SSE 18:27:37 36° E 18:31:50 10° NNE
Cosmos 1741 Rocket 4.5 18:25:14 10° NNW 18:30:25 68° WSW 18:35:35 10° S
Cosmos 1758 Rocket 3.7 18:27:36 10° N 18:31:59 80° W 18:36:18 10° S
Milstar 3 3.3 18:24:28 10° WSW 18:32:01 56° S 18:38:34 10° E
Cosmos 1689 Rocket 2.7 18:30:11 10° NNE 18:32:49 32° E 18:35:27 10° SSE
Helios 1A Rocket 4.3 18:30:47 10° ESE 18:33:40 19° ENE 18:36:32 10° NNE
OAO 1 Rocket 4.5 18:30:30 10° WSW 18:35:52 89° S 18:41:06 11° ENE
Cosmos 1606 Rocket 4.1 18:32:58 10° SSW 18:37:15 62° W 18:41:37 10° N
Cosmos 1400 Rocket 2.8 18:38:50 10° S 18:42:56 71° E 18:47:01 10° NNE
Meteor 2-10 Rocket 4.2 18:38:47 10° SSE 18:43:32 32° E 18:48:08 10° NNE
Timation 2 Rocket 4.3 18:37:50 10° NNW 18:44:22 54° ENE 18:51:03 10° SE
Okean-O 3.7 18:41:50 10° ESE 18:45:22 24° ENE 18:48:54 10° NNE
Meteor 2-21 Rocket 4.4 18:40:25 10° N 18:46:35 82° E 18:52:41 10° S
Cosmos 2219 3.8 18:41:41 10° N 18:46:55 34° ENE 18:52:06 10° SE
CZ-4 R/B 2.5 18:46:37 10° ESE 18:49:37 21° ENE 18:52:35 10° NNE
USA 281 3.4 18:44:16 10° SSE 18:50:49 77° WSW 18:57:24 10° NNW
Cosmos 1992 Rocket 4.3 18:47:11 10° S 18:52:03 43° ESE 18:56:57 10° NNE
SKYMED 2 3.5 18:48:04 10° NNE 18:52:25 80° E 18:56:45 10° S
OAO 2 Rocket 3.3 18:48:33 10° WSW 18:53:34 87° N 18:57:25 17° ENE
Cosmos 1553 Rocket 4.0 18:48:11 10° S 18:54:27 62° E 19:00:40 10° NNE
Cosmos 1892 3.6 18:51:19 10° NNE 18:54:37 26° ENE 18:57:55 10° SE
Cosmos 220 Rocket 4.2 18:50:46 10° S 18:54:54 47° ESE 18:59:07 10° NNE
Cosmos 1408 4.3 18:53:39 10° NE 18:54:58 15° NE 18:54:58 15° NE
PSLV R/B 3.8 18:53:17 10° NNE 18:57:26 74° ESE 19:01:32 10° S
Cosmos 2058 4.0 18:55:01 10° NNE 18:58:11 21° ENE 19:01:20 10° SE
Cosmos 1300 4.4 18:55:11 10° SSW 18:58:42 36° W 19:02:15 10° NNW
YAOGAN 3 4.5 18:55:23 10° SSE 18:59:42 73° ENE 19:04:04 10° N
Cosmos 2369 4.0 18:56:49 10° S 19:02:15 46° ESE 19:07:41 10° NE
Cosmos 1656 4.0 18:58:18 10° SSW 19:03:47 70° WNW 19:09:23 10° NNE
H-2A R/B 3.2 19:00:52 10° ESE 19:05:05 24° ENE 19:09:20 10° NNE
CZ-2D R/B 3.4 19:01:53 10° SSE 19:05:34 48° ENE 19:09:14 10° N
Cosmos 2058 Rocket 3.9 19:06:53 10° SSW 19:11:14 54° W 19:15:40 10° N
BREEZE-M DEB (TANK) 3.6 19:09:12 10° SW 19:12:31 90° N 19:22:42 10° NE
Meteor 2-15 4.4 19:06:50 10° S 19:12:55 70° E 19:19:01 10° NNE
Geosat 4.0 19:08:50 10° NNE 19:13:50 64° ESE 19:18:47 10° SSW
Cosmos 1953 Rocket 4.5 19:10:02 10° NNW 19:14:20 52° W 19:18:39 10° S
Cosmos 1315 Rocket 2.9 19:10:41 10° S 19:14:28 50° E 19:18:20 10° NNE
OAO 3 Rocket 3.3 19:09:53 10° W 19:14:41 69° SSW 19:17:36 23° ESE
Cosmos 1346 Rocket 3.4 19:12:01 10° NNE 19:15:39 33° ENE 19:16:54 27° ESE
CSL-04 Rocket 4.4 19:12:41 11° SE 19:17:19 31° ENE 19:22:08 10° N
Cosmos 2227 Rocket 2.3 19:15:01 10° N 19:20:31 50° ENE 19:25:58 10° SE
Atlas Centaur 2 3.2 19:14:25 10° WSW 19:22:44 69° S 19:27:55 26° E
SeaSat 1 4.4 19:25:40 13° NNE 19:25:40 13° NNE 19:26:35 10° NNE
SL-08 R/B 4.3 19:18:09 10° N 19:24:19 80° E 19:30:24 10° S
Meteor 2-1 Rocket 4.0 19:21:19 10° S 19:26:49 77° E 19:32:20 10° N
Cosmos 1340 3.0 19:23:44 10° NNW 19:27:29 67° W 19:31:13 10° S
IRS-1C Rocket 4.4 19:22:28 10° S 19:27:42 70° WSW 19:32:57 10° NNW
Cosmos 1745 Rocket 4.0 19:21:50 10° N 19:28:03 60° E 19:34:18 10° SSE
Cosmos 1697 Rocket 2.7 19:23:57 10° SSW 19:29:33 82° WNW 19:35:12 10° NNE
CRYOSAT 2 4.3 19:28:07 10° NNE 19:32:57 62° E 19:37:44 10° S
GPS 2-04 Rocket1 2.7 19:30:18 10° WSW 19:34:23 77° SSE 19:35:07 57° E
ASTRO E2 2.7 19:31:09 10° WSW 19:35:05 66° S 19:35:40 56° SE
Cosmos 1386 Rocket 4.4 19:34:27 10° N 19:40:50 72° E 19:47:06 10° SSE
Cosmos 1455 2.8 19:43:20 10° SSW 19:47:00 54° W 19:50:43 10° N
YAOGAN 1 2.5 19:43:34 10° S 19:47:53 81° WSW 19:52:13 10° NNW
Cosmos 968 Rocket 3.3 19:43:13 10° NNW 19:48:26 87° ENE 19:52:12 19° SSE
MOS 1 Rocket 3.4 19:44:50 10° N 19:49:38 80° WNW 19:54:44 10° SSW
Cosmos 1980 Rocket 2.0 19:46:43 10° SSW 19:52:20 79° ESE 19:54:47 35° NNE
Cosmos 1812 Rocket 3.8 19:50:46 10° SSW 19:55:08 67° W 19:59:31 10° N
Delta 2 Rocket 4.3 19:51:20 10° W 19:56:35 59° SSW 19:57:52 47° SSE
Cosmos 1709 Rocket 4.0 19:51:33 10° N 19:57:50 57° E 19:58:53 51° ESE
CSL-04 Debris 4.0 19:52:36 10° SSE 19:58:00 82° ENE 20:03:28 10° N
Cosmos 2297 Rocket 2.8 19:54:44 10° NNW 20:00:16 56° WSW 20:05:45 10° S
Cosmos 883 Rocket 4.5 19:59:12 10° S 20:05:22 81° W 20:11:32 10° N
Cosmos 44 Rocket 4.2 20:04:33 10° SW 20:09:04 45° WNW 20:10:36 34° NNW
Cosmos 2315 Rocket 3.8 20:04:08 10° S 20:10:20 89° ESE 20:16:34 10° N
CZ-2C R/B 4.0 20:07:31 10° S 20:13:11 53° W 20:18:45 10° NNW
ATLAS 2AS CENTAUR R/B 4.4 20:11:45 10° N 20:15:02 19° NNE 20:15:02 19° NNE
Cosmos 1503 Rocket 4.5 20:14:53 10° NNW 20:18:52 53° NNW 20:18:52 53° NNW
Cosmos 2278 4.3 20:16:55 10° SW 20:22:27 53° WNW 20:24:48 32° N
CZ-4 R/B 3.9 20:21:36 10° SW 20:24:31 20° W 20:27:25 10° NW
ARGOS 4.3 20:40:47 38° NW 20:40:47 38° NW 20:44:14 10° NNW
Cosmos 2082 4.4 20:34:00 10° NNW 20:38:31 50° WNW 20:38:31 50° WNW
H-2A R/B 3.5 20:41:22 22° SSW 20:44:12 37° W 20:49:13 10° NNW
Atlas Centaur 2 3.6 21:04:04 10° W 21:10:30 53° WSW 21:10:30 53° WSW
Milstar 3 3.9 21:08:34 10° W 21:12:36 36° WSW 21:12:36 36° WSW
